• In Hungary
  • List of Countries
  • For 7 days
  • Water Temperature
  • Satellite Maps
  • Weather Map
  • News
  • Weather Widgets
  • user-avatar
    Login

    Hourly Weather Puerto Santa María

    Today, 23 February, Friday

    Time Temperature Precipitation Wind Pressure Humidity
    00:00 +23°C° 0 mm 2 mps 752 mmHg 55%
    01:00 +21°C° 0 mm 2 mps 752 mmHg 58%
    02:00 +21°C° 0 mm 1 mps 752 mmHg 61%
    03:00 +21°C° 0 mm 1 mps 752 mmHg 64%
    04:00 +20°C° 0 mm 1 mps 752 mmHg 67%
    05:00 +19°C° 0 mm 1 mps 752 mmHg 70%
    06:00 +21°C° 0 mm 1 mps 752 mmHg 64%
    07:00 +23°C° 0 mm 1 mps 752 mmHg 59%
    08:00 +25°C° 0 mm 2 mps 753 mmHg 54%
    09:00 +29°C° 0 mm 1 mps 752 mmHg 46%
    10:00 +32°C° 0 mm 1 mps 752 mmHg 37%
    11:00 +36°C° 0 mm 1 mps 752 mmHg 29%
    12:00 +36°C° 0 mm 1 mps 752 mmHg 26%
    13:00 +37°C° 0 mm 1 mps 751 mmHg 24%
    14:00 +37°C° 0 mm 1 mps 750 mmHg 21%
    15:00 +37°C° 0 mm 1 mps 750 mmHg 23%
    16:00 +36°C° 0 mm 1 mps 749 mmHg 24%
    17:00 +36°C° 0 mm 2 mps 749 mmHg 25%
    18:00 +32°C° 0 mm 1 mps 749 mmHg 30%
    19:00 +29°C° 0 mm 1 mps 749 mmHg 35%
    20:00 +27°C° 0 mm 1 mps 750 mmHg 40%
    21:00 +26°C° 0 mm 1 mps 750 mmHg 42%
    22:00 +25°C° 0 mm 1 mps 750 mmHg 45%
    23:00 +24°C° 0 mm 1 mps 751 mmHg 47%

    Tomorrow, 24 February, Saturday

    Time Temperature Precipitation Wind Pressure Humidity
    00:00 +23°C° 0 mm 1 mps 751 mmHg 50%
    01:00 +23°C° 0 mm 1 mps 750 mmHg 53%
    02:00 +22°C° 0 mm 1 mps 750 mmHg 57%
    03:00 +22°C° 0 mm 1 mps 750 mmHg 60%
    04:00 +21°C° 0 mm 1 mps 751 mmHg 63%
    05:00 +21°C° 0 mm 1 mps 751 mmHg 65%
    06:00 +23°C° 0 mm 1 mps 751 mmHg 61%
    07:00 +25°C° 0 mm 1 mps 752 mmHg 57%
    08:00 +27°C° 0 mm 1 mps 752 mmHg 53%
    09:00 +30°C° 0 mm 2 mps 752 mmHg 45%
    10:00 +34°C° 0 mm 2 mps 752 mmHg 38%
    11:00 +36°C° 0 mm 2 mps 752 mmHg 30%
    12:00 +37°C° 0 mm 2 mps 751 mmHg 27%
    13:00 +38°C° 0 mm 2 mps 750 mmHg 24%
    14:00 +39°C° 0 mm 2 mps 750 mmHg 21%
    15:00 +39°C° 0 mm 2 mps 749 mmHg 22%
    16:00 +38°C° 0 mm 2 mps 749 mmHg 24%
    17:00 +37°C° 0 mm 2 mps 749 mmHg 26%
    18:00 +35°C° 0 mm 2 mps 749 mmHg 33%
    19:00 +32°C° 0 mm 2 mps 749 mmHg 39%
    20:00 +29°C° 0 mm 2 mps 750 mmHg 46%
    21:00 +28°C° 0 mm 2 mps 750 mmHg 51%
    22:00 +28°C° 0 mm 2 mps 751 mmHg 55%
    23:00 +27°C° 0 mm 2 mps 751 mmHg 60%

    Day after tomorrow, 25 February, Sunday

    Time Temperature Precipitation Wind Pressure Humidity
    00:00 +26°C° 0 mm 2 mps 751 mmHg 64%
    01:00 +26°C° 0 mm 1 mps 751 mmHg 67%
    02:00 +25°C° 0 mm 1 mps 751 mmHg 71%
    03:00 +25°C° 0 mm 1 mps 751 mmHg 73%
    04:00 +24°C° 0 mm 1 mps 751 mmHg 75%
    05:00 +24°C° 0 mm 1 mps 751 mmHg 77%
    06:00 +26°C° 0 mm 1 mps 752 mmHg 71%
    07:00 +28°C° 0 mm 1 mps 752 mmHg 66%
    08:00 +30°C° 0 mm 1 mps 753 mmHg 60%
    09:00 +32°C° 0 mm 1 mps 753 mmHg 52%
    10:00 +35°C° 0 mm 2 mps 752 mmHg 44%
    11:00 +38°C° 0 mm 2 mps 752 mmHg 36%
    12:00 +38°C° 0 mm 2 mps 751 mmHg 35%
    13:00 +37°C° 0 mm 2 mps 750 mmHg 35%
    14:00 +37°C° 0 mm 2 mps 750 mmHg 35%
    15:00 +37°C° 0 mm 2 mps 749 mmHg 36%
    16:00 +37°C° 0 mm 2 mps 749 mmHg 36%
    17:00 +36°C° 0 mm 2 mps 749 mmHg 37%
    18:00 +35°C° 0 mm 2 mps 749 mmHg 41%
    19:00 +32°C° 0 mm 1 mps 749 mmHg 46%
    20:00 +30°C° 0 mm 1 mps 750 mmHg 51%
    21:00 +29°C° 0 mm 1 mps 750 mmHg 53%
    22:00 +28°C° 0 mm 1 mps 751 mmHg 56%
    23:00 +27°C° 0 mm 1 mps 751 mmHg 58%

    26 February, Monday

    Time Temperature Precipitation Wind Pressure Humidity
    00:00 +27°C° 0 mm 1 mps 751 mmHg 61%
    01:00 +26°C° 0 mm 1 mps 750 mmHg 64%
    02:00 +25°C° 0 mm 1 mps 750 mmHg 67%
    03:00 +25°C° 0 mm 1 mps 750 mmHg 70%
    04:00 +24°C° 0 mm 1 mps 750 mmHg 73%
    05:00 +24°C° 0 mm 1 mps 750 mmHg 75%
    06:00 +26°C° 0 mm 1 mps 751 mmHg 68%
    07:00 +28°C° 0 mm 1 mps 751 mmHg 62%
    08:00 +30°C° 0 mm 1 mps 752 mmHg 55%
    09:00 +33°C° 0 mm 1 mps 751 mmHg 47%
    10:00 +35°C° 0 mm 1 mps 751 mmHg 40%
    11:00 +39°C° 0 mm 2 mps 751 mmHg 32%
    12:00 +39°C° 0 mm 2 mps 750 mmHg 31%
    13:00 +39°C° 0 mm 2 mps 749 mmHg 29%
    14:00 +40°C° 0 mm 1 mps 748 mmHg 27%
    15:00 +38°C° 0 mm 2 mps 748 mmHg 30%
    16:00 +37°C° 0 mm 2 mps 748 mmHg 34%
    17:00 +35°C° 0 mm 2 mps 747 mmHg 37%
    18:00 +34°C° 0 mm 2 mps 748 mmHg 39%
    19:00 +32°C° 0 mm 2 mps 748 mmHg 41%
    20:00 +31°C° 0 mm 2 mps 748 mmHg 43%
    21:00 +31°C° 0 mm 2 mps 749 mmHg 45%
    22:00 +30°C° 0 mm 1 mps 749 mmHg 47%
    23:00 +30°C° 0 mm 1 mps 749 mmHg 48%

    27 February, Tuesday

    Time Temperature Precipitation Wind Pressure Humidity
    00:00 +29°C° 0 mm 1 mps 749 mmHg 52%
    01:00 +28°C° 0 mm 1 mps 749 mmHg 55%
    02:00 +28°C° 0 mm 1 mps 749 mmHg 59%
    03:00 +27°C° 0 mm 1 mps 749 mmHg 63%
    04:00 +26°C° 0 mm 1 mps 749 mmHg 66%
    05:00 +26°C° 0 mm 1 mps 749 mmHg 70%
    06:00 +27°C° 0 mm 1 mps 749 mmHg 66%
    07:00 +29°C° 0 mm 2 mps 750 mmHg 61%
    08:00 +30°C° 0 mm 2 mps 750 mmHg 57%
    09:00 +34°C° 0 mm 2 mps 750 mmHg 49%
    10:00 +36°C° 0 mm 2 mps 750 mmHg 40%
    11:00 +39°C° 0 mm 2 mps 750 mmHg 32%
    12:00 +40°C° 0 mm 2 mps 749 mmHg 30%
    13:00 +41°C° 0 mm 1 mps 748 mmHg 28%
    14:00 +42°C° 0 mm 1 mps 747 mmHg 26%
    15:00 +40°C° 0 mm 1 mps 747 mmHg 29%
    16:00 +37°C° 0 mm 1 mps 747 mmHg 33%
    17:00 +36°C° 0 mm 2 mps 747 mmHg 37%
    18:00 +35°C° 0 mm 2 mps 747 mmHg 38%
    19:00 +34°C° 0 mm 2 mps 748 mmHg 40%
    20:00 +32°C° 0 mm 2 mps 748 mmHg 42%
    21:00 +31°C° 0 mm 2 mps 748 mmHg 45%
    22:00 +31°C° 0 mm 2 mps 749 mmHg 48%
    23:00 +30°C° 0 mm 1 mps 749 mmHg 51%

    28 February, Wednesday

    Time Temperature Precipitation Wind Pressure Humidity
    00:00 +29°C° 0 mm 1 mps 749 mmHg 56%
    01:00 +28°C° 0 mm 1 mps 748 mmHg 61%
    02:00 +28°C° 0 mm 1 mps 748 mmHg 65%
    03:00 +27°C° 0 mm 1 mps 748 mmHg 70%
    04:00 +26°C° 0 mm 1 mps 748 mmHg 74%
    05:00 +26°C° 0 mm 1 mps 749 mmHg 78%
    06:00 +27°C° 0 mm 1 mps 749 mmHg 73%
    07:00 +29°C° 0 mm 1 mps 750 mmHg 69%
    08:00 +30°C° 0 mm 1 mps 750 mmHg 64%
    09:00 +34°C° 0 mm 2 mps 750 mmHg 55%
    10:00 +37°C° 0 mm 2 mps 750 mmHg 46%
    11:00 +39°C° 0 mm 2 mps 750 mmHg 37%
    12:00 +39°C° 0 mm 2 mps 749 mmHg 36%
    13:00 +39°C° 0 mm 2 mps 748 mmHg 35%
    14:00 +39°C° 0 mm 2 mps 747 mmHg 34%
    15:00 +39°C° 0 mm 2 mps 747 mmHg 35%
    16:00 +38°C° 0 mm 2 mps 747 mmHg 36%
    17:00 +38°C° 0 mm 2 mps 747 mmHg 37%
    18:00 +36°C° 0 mm 2 mps 747 mmHg 41%
    19:00 +35°C° 0 mm 2 mps 747 mmHg 44%
    20:00 +32°C° 0 mm 2 mps 748 mmHg 47%
    21:00 +32°C° 0 mm 2 mps 748 mmHg 50%
    22:00 +31°C° 0 mm 2 mps 748 mmHg 53%
    23:00 +30°C° 0 mm 2 mps 749 mmHg 56%
    Show more